COSMOS 1275 DEB, 42211

Orbit data source: Space-Track

COSMOS 1275 DEB, 42211 is space debris in LEO originally from a launch on Thu, 04 Jun 1981 UTC launched from the Plesetsk Missile And Space Complex (PKMTR). Debris objects in space refer to the collection of defunct objects orbiting the Earth. Examples of debris include non-operational satellites, rocket bodies, and fragments generated from explosions, collisions, or faulty payload assembly.

Loading next visibility...
Identifier
42211, 1981-053UB
Orbit
LEO
Country
Flag of CISCIS
Related business
Manufacturer
Unknown
Mission
Spacecraft
Bus & Motor
Unknown
Mass
Unknown
Launch date (UTC)
1981-06-04 (45 years ago)
Launch vehicle
Unknown
Launch site
Plesetsk Missile And Space Complex (PKMTR)
Object type
Payload
Rocket body
Debris
Shape & HBR
Unknown shape, 0.1 m
Radar Cross Section
Small (<0.1 m²)

Expand to show TLE details & history
Last TLE update: 2 days ago

TLE from 2 days ago
0 COSMOS 1275 DEB
1 42211U 81053UB  26069.85263145  .00003056  00000-0  13384-2 0  9999
2 42211  82.8370 122.6573 0044375 175.8829 184.2728 14.22925886 89588
Epoch: 2026-03-10T20:27Z
TLE epoch observation values (Epoch: 2026-03-10T20:27:47.357Z)
Latitude
-0.00001°
Longitude
7.1847°
Altitude
850.279 km
Speed
7.411 km/s
True Right ascension
08h 10m 37s
True Declination
0° 00' 00"
Sunlit
Object was in full shadow at epoch
Visualization orbit readout
Latitude
Unknown
Longitude
Unknown
Altitude
Unknown
Speed
Unknown
Apparent Right ascension
Unknown
Apparent Declination
Unknown
Sunlit
N/A
Visualization observer readout
Local Sidereal Time
11:47:02
Azimuth
Unknown
Elevation
Unknown
Doppler factor
Unknown
Orbital elements
Apogee altitude
844.47 km
Perigee altitude
780.653 km
Semi-major axis
7,190.698 km
Eccentricity
0.00444
Inclination
82.837°
RAAN
122.6573°
Arg. of periapsis
175.8829°
True anomaly
184.23512°
Mean anomaly
184.2728°
Eccentric anomaly
184.25394°
Mean motion
3.55948 °/min
Orbital period
101.14 mins
BSTAR
0.0013384
Loading maneuver chart data...
Computing Atmospheric mass density...
Loading historical data...
Loading historical data...
Loading historical data...
Loading historical data...
Loading historical data...
Loading historical data...
Loading historical data...

Documentation

Showing up to 5 results
|